This demonstration page uses our WeatherBlox Daily Observations layout. Learn more.

Left ArrowRight Arrow

44.8408, -93.29828

Hourly Observations for September 27, 2016

Temp ( °F °C ) Dew Point ( °F °C ) Humidity (%) Winds ( mph kmh ) Pressure ( in mb ) Visibility ( mi km ) Precip ( " mm )
12:53 am 00:53 Clear 55 12.8 36 2.2 49 49 W 12 19 29.85 1011 10 16 0.00 0.00
1:53 am 01:53 Clear 53 11.7 36 2.2 52 52 WNW 12 19 29.86 1011 10 16 0.00 0.00
2:53 am 02:53 Clear 53 11.7 36 2.2 52 52 W 14 22 29.85 1011 10 16 0.00 0.00
3:53 am 03:53 Clear 51 10.6 37 2.8 59 59 W 14 22 29.84 1010 10 16 0.00 0.00
4:53 am 04:53 Clear 51 10.6 37 2.8 59 59 WNW 12 19 29.84 1010 10 16 0.00 0.00
5:53 am 05:53 Clear 50 10 38 3.3 63 63 WNW 13 20 29.83 1010 10 16 0.00 0.00
6:53 am 06:53 Mostly Clear 49 9.4 39 3.9 69 69 W 14 22 29.85 1011 10 16 0.00 0.00
7:53 am 07:53 Mostly Sunny 50 10 40 4.4 68 68 WNW 12 19 29.85 1011 10 16 0.00 0.00
8:53 am 08:53 Mostly Sunny 52 11.1 41 5 66 66 WNW 17 28 29.84 1010 10 16 0.00 0.00
9:53 am 09:53 Mostly Sunny 55 12.8 42 5.6 62 62 W 18 30 29.83 1010 10 16 0.00 0.00
10:53 am 10:53 Mostly Cloudy 56 13.3 42 5.6 60 60 NW 20 31 29.82 1010 10 16 0.00 0.00
11:53 am 11:53 Mostly Cloudy 57 13.9 42 5.6 58 58 NW 18 30 29.81 1010 10 16 0.00 0.00
12:53 pm 12:53 Mostly Cloudy 60 15.6 43 6.1 53 53 NW 14 22 29.80 1009 10 16 0.00 0.00
1:53 pm 13:53 Mostly Cloudy 58 14.4 42 5.6 56 56 NW 17 28 29.78 1009 10 16 0.00 0.00
2:53 pm 14:53 Mostly Cloudy 59 15 41 5 51 51 NNW 15 24 29.78 1009 10 16 0.00 0.00
3:53 pm 15:53 Cloudy 58 14.4 43 6.1 58 58 NNW 10 17 29.79 1009 10 16 0.00 0.00
4:53 pm 16:53 Cloudy with Light Rain 55 12.8 42 5.6 62 62 N 15 24 29.81 1009 10 16 0.00 0.03
5:53 pm 17:53 Cloudy with Light Rain 51 10.6 46 7.8 83 83 N 10 17 29.84 1011 8 13 0.02 0.51
6:53 pm 18:53 Cloudy with Light Rain 50 10 46 7.8 86 86 NW 12 19 29.85 1011 10 16 0.02 0.51
7:53 pm 19:53 Cloudy 50 10 46 7.8 86 86 NNW 10 17 29.86 1011 10 16 0.00 0.03
8:30 pm 20:30 Cloudy 50 10 46 8 88 88 NNW 10 17 29.88 1012 10 16 0.00 0.00
8:53 pm 20:53 Mostly Cloudy 50 10 46 7.8 86 86 NW 10 17 29.87 1012 10 16 0.00 0.03
9:37 pm 21:37 Mostly Cloudy 50 10 46 7.8 86 86 NNW 9 15 29.91 1013 10 16 0.00 0.00
9:53 pm 21:53 Mostly Cloudy 50 10 46 7.8 86 86 N 13 20 29.88 1012 10 16 0.00 0.00
10:37 pm 22:37 Mostly Cloudy 50 10 45 7.2 83 83 N 13 20 29.91 1013 10 16 0.00 0.00
10:53 pm 22:53 Mostly Cloudy 50 10 45 7.2 83 83 N 13 20 29.89 1012 10 16 0.00 0.00
11:16 pm 23:16 Cloudy 50 10 45 7 82 82 N 10 17 29.91 1013 10 16 0.00 0.00
11:53 pm 23:53 Cloudy 50 10 45 7.2 83 83 N 13 20 29.91 1013 10 16 0.00 0.00

Powered by AerisWeather